N9908K KCYS-KLMO

Flight info

Callsign N9908K
Flight time 0h 49m
Altitude 10000
Route KCYS WOLTS KLMO
Aircraft C182/L-G/C

Departure

Time 2026-04-20 02:48
Airport Cheyenne Regional Jerry Olson Field (KCYS)

Arrival

Time 2026-04-20 03:37
Airport Vance Brand Airport (KLMO)
Time Latitude Longitude Altitude Speed Heading
2026-04-20 02:38 41.15257 -104.81726 6143 ft 0 kts 89°
2026-04-20 02:44 41.15259 -104.81713 6143 ft 7 kts 65°
2026-04-20 02:44 41.15232 -104.81628 6141 ft 16 kts 135°
2026-04-20 02:44 41.15122 -104.81485 6133 ft 28 kts 136°
2026-04-20 02:44 41.14969 -104.81279 6127 ft 34 kts 136°
2026-04-20 02:45 41.14912 -104.81150 6126 ft 0 kts 76°
2026-04-20 02:46 41.14913 -104.81147 6126 ft 3 kts 75°
2026-04-20 02:46 41.14939 -104.81082 6127 ft 8 kts 357°
2026-04-20 02:47 41.15010 -104.81157 6127 ft 26 kts 315°
2026-04-20 02:47 41.15228 -104.81444 6136 ft 61 kts 316°
2026-04-20 02:47 41.15593 -104.81916 6201 ft 82 kts 316°
2026-04-20 02:47 41.16015 -104.82481 6407 ft 88 kts 316°
2026-04-20 02:48 41.16443 -104.83070 6682 ft 88 kts 315°
2026-04-20 02:48 41.16867 -104.83632 6930 ft 87 kts 314°
2026-04-20 02:48 41.17293 -104.84215 7154 ft 88 kts 314°
2026-04-20 02:48 41.17714 -104.84792 7399 ft 88 kts 313°
2026-04-20 02:49 41.18127 -104.85393 7630 ft 88 kts 311°
2026-04-20 02:49 41.18566 -104.85983 7836 ft 90 kts 313°
2026-04-20 02:49 41.18958 -104.86618 8048 ft 90 kts 297°
2026-04-20 02:49 41.19071 -104.87400 8288 ft 89 kts 266°
2026-04-20 02:50 41.18862 -104.88209 8473 ft 93 kts 245°
2026-04-20 02:50 41.18516 -104.88903 8713 ft 91 kts 239°
2026-04-20 02:50 41.18013 -104.89475 8882 ft 100 kts 207°
2026-04-20 02:50 41.17327 -104.89657 9083 ft 103 kts 192°
2026-04-20 02:51 41.16581 -104.89758 9251 ft 109 kts 185°
2026-04-20 02:51 41.15852 -104.89814 9497 ft 105 kts 189°
2026-04-20 02:51 41.15139 -104.89926 9731 ft 102 kts 191°
2026-04-20 02:51 41.14412 -104.90047 9902 ft 108 kts 190°
2026-04-20 02:52 41.13639 -104.90175 9999 ft 118 kts 192°
2026-04-20 02:52 41.12821 -104.90318 10159 ft 117 kts 191°
2026-04-20 02:52 41.11967 -104.90441 10156 ft 129 kts 189°
2026-04-20 02:52 41.11034 -104.90598 10113 ft 138 kts 192°
2026-04-20 02:53 41.10060 -104.90790 10046 ft 146 kts 192°
2026-04-20 02:53 41.09064 -104.91003 10060 ft 145 kts 193°
2026-04-20 02:53 41.08058 -104.91229 10017 ft 147 kts 193°
2026-04-20 02:53 41.07059 -104.91475 10033 ft 145 kts 191°
2026-04-20 02:54 41.06046 -104.91633 9980 ft 147 kts 189°
2026-04-20 02:54 41.05053 -104.91798 9971 ft 144 kts 191°
2026-04-20 02:54 41.04065 -104.92033 9939 ft 143 kts 194°
2026-04-20 02:54 41.03086 -104.92232 9947 ft 142 kts 191°
2026-04-20 02:55 41.02107 -104.92365 9963 ft 139 kts 188°
2026-04-20 02:55 41.01144 -104.92463 9970 ft 138 kts 188°
2026-04-20 02:55 41.00258 -104.92566 10060 ft 124 kts 188°
2026-04-20 02:55 40.99384 -104.92723 9930 ft 126 kts 193°
2026-04-20 02:56 40.98539 -104.92924 9914 ft 120 kts 192°
2026-04-20 02:56 40.97734 -104.93070 9980 ft 110 kts 190°
2026-04-20 02:56 40.96974 -104.93136 9950 ft 112 kts 186°
2026-04-20 02:56 40.96200 -104.93226 9919 ft 112 kts 193°
2026-04-20 02:57 40.95453 -104.93420 9927 ft 109 kts 197°
2026-04-20 02:57 40.94733 -104.93711 9958 ft 104 kts 203°
2026-04-20 02:57 40.94030 -104.94053 9855 ft 112 kts 204°
2026-04-20 02:57 40.93297 -104.94335 9873 ft 110 kts 196°
2026-04-20 02:58 40.92549 -104.94546 9869 ft 108 kts 196°
2026-04-20 02:58 40.91803 -104.94736 9815 ft 112 kts 195°
2026-04-20 02:58 40.91041 -104.94932 9812 ft 110 kts 194°
2026-04-20 02:58 40.90319 -104.95095 9892 ft 103 kts 193°
2026-04-20 02:59 40.89633 -104.95240 9956 ft 97 kts 194°
2026-04-20 02:59 40.88955 -104.95406 9954 ft 98 kts 194°
2026-04-20 02:59 40.88277 -104.95559 9923 ft 104 kts 195°
2026-04-20 02:59 40.87562 -104.95612 9981 ft 100 kts 178°
2026-04-20 03:00 40.86854 -104.95474 9936 ft 107 kts 173°
2026-04-20 03:00 40.86142 -104.95303 9985 ft 102 kts 173°
2026-04-20 03:00 40.85427 -104.95125 9962 ft 105 kts 173°
2026-04-20 03:00 40.84714 -104.94962 9985 ft 105 kts 174°
2026-04-20 03:01 40.83995 -104.94815 9995 ft 105 kts 174°
2026-04-20 03:01 40.83272 -104.94659 9986 ft 106 kts 174°
2026-04-20 03:01 40.82543 -104.94471 9997 ft 106 kts 172°
2026-04-20 03:01 40.81808 -104.94266 9977 ft 108 kts 172°
2026-04-20 03:02 40.81075 -104.94054 9978 ft 108 kts 171°
2026-04-20 03:02 40.80336 -104.93814 9958 ft 111 kts 169°
2026-04-20 03:02 40.79582 -104.93580 9953 ft 112 kts 171°
2026-04-20 03:02 40.78832 -104.93378 9998 ft 108 kts 173°
2026-04-20 03:03 40.78079 -104.93226 9980 ft 111 kts 174°
2026-04-20 03:03 40.77327 -104.93070 10005 ft 109 kts 175°
2026-04-20 03:03 40.76571 -104.92928 9993 ft 110 kts 175°
2026-04-20 03:03 40.75825 -104.92770 10000 ft 110 kts 174°
2026-04-20 03:04 40.75063 -104.92556 9998 ft 110 kts 171°
2026-04-20 03:04 40.74315 -104.92340 9986 ft 110 kts 171°
2026-04-20 03:04 40.73564 -104.92127 9989 ft 110 kts 172°
2026-04-20 03:04 40.72819 -104.91902 10081 ft 110 kts 170°
2026-04-20 03:05 40.72033 -104.91629 10076 ft 124 kts 167°
2026-04-20 03:05 40.71160 -104.91309 10055 ft 138 kts 166°
2026-04-20 03:05 40.70221 -104.90952 10077 ft 142 kts 167°
2026-04-20 03:05 40.69241 -104.90581 10031 ft 151 kts 166°
2026-04-20 03:06 40.68235 -104.90160 10049 ft 151 kts 164°
2026-04-20 03:06 40.67219 -104.89733 10067 ft 152 kts 166°
2026-04-20 03:06 40.66199 -104.89342 10064 ft 153 kts 167°
2026-04-20 03:06 40.65173 -104.88993 10104 ft 152 kts 169°
2026-04-20 03:07 40.64141 -104.88691 10072 ft 156 kts 170°
2026-04-20 03:07 40.63091 -104.88402 10058 ft 155 kts 172°
2026-04-20 03:10 40.62895 -104.88356 10040 ft 156 kts 172°
2026-04-20 03:11 40.61827 -104.88119 10061 ft 153 kts 173°
2026-04-20 03:11 40.60762 -104.87952 10019 ft 155 kts 178°
2026-04-20 03:11 40.59697 -104.87864 10061 ft 152 kts 178°
2026-04-20 03:11 40.58652 -104.87721 10109 ft 149 kts 174°
2026-04-20 03:12 40.57621 -104.87487 10091 ft 152 kts 172°
2026-04-20 03:12 40.56573 -104.87228 10081 ft 153 kts 172°
2026-04-20 03:12 40.55533 -104.86901 10087 ft 153 kts 166°
2026-04-20 03:12 40.54508 -104.86505 10087 ft 154 kts 165°
2026-04-20 03:13 40.53501 -104.86027 10081 ft 154 kts 159°
2026-04-20 03:13 40.52517 -104.85499 10072 ft 155 kts 160°
2026-04-20 03:13 40.51527 -104.84951 10082 ft 154 kts 158°
2026-04-20 03:13 40.50544 -104.84395 10079 ft 154 kts 159°
2026-04-20 03:14 40.49533 -104.83907 10062 ft 155 kts 165°
2026-04-20 03:14 40.48504 -104.83508 10081 ft 153 kts 167°
2026-04-20 03:14 40.47471 -104.83176 10096 ft 152 kts 168°
2026-04-20 03:14 40.46440 -104.82828 10089 ft 153 kts 168°
2026-04-20 03:15 40.45405 -104.82499 10092 ft 153 kts 168°
2026-04-20 03:15 40.44380 -104.82194 10073 ft 153 kts 171°
2026-04-20 03:15 40.43322 -104.81997 10031 ft 155 kts 175°
2026-04-20 03:15 40.42216 -104.81784 9836 ft 163 kts 172°
2026-04-20 03:16 40.41108 -104.81532 9787 ft 159 kts 175°
2026-04-20 03:16 40.40023 -104.81394 9737 ft 156 kts 175°
2026-04-20 03:16 40.38944 -104.81223 9587 ft 155 kts 174°
2026-04-20 03:16 40.37861 -104.81103 9408 ft 157 kts 178°
2026-04-20 03:17 40.36786 -104.80999 9287 ft 155 kts 176°
2026-04-20 03:17 40.35724 -104.80880 9178 ft 150 kts 176°
2026-04-20 03:17 40.34699 -104.80809 9042 ft 146 kts 179°
2026-04-20 03:17 40.33680 -104.80805 8853 ft 147 kts 180°
2026-04-20 03:18 40.32663 -104.80730 8696 ft 145 kts 175°
2026-04-20 03:18 40.31659 -104.80595 8544 ft 144 kts 174°
2026-04-20 03:18 40.30676 -104.80457 8384 ft 144 kts 174°
2026-04-20 03:18 40.29683 -104.80309 8238 ft 143 kts 174°
2026-04-20 03:19 40.28695 -104.80208 8071 ft 141 kts 177°
2026-04-20 03:19 40.27711 -104.80178 7815 ft 143 kts 181°
2026-04-20 03:19 40.26715 -104.80162 7583 ft 141 kts 176°
2026-04-20 03:19 40.25747 -104.80055 7426 ft 136 kts 174°
2026-04-20 03:20 40.24834 -104.79938 7418 ft 125 kts 173°
2026-04-20 03:20 40.23982 -104.79833 7364 ft 123 kts 174°
2026-04-20 03:20 40.23146 -104.79737 7349 ft 118 kts 173°
2026-04-20 03:20 40.22334 -104.79637 7326 ft 116 kts 174°
2026-04-20 03:21 40.21551 -104.79589 7364 ft 109 kts 177°
2026-04-20 03:21 40.20785 -104.79538 7320 ft 112 kts 175°
2026-04-20 03:21 40.20018 -104.79468 7330 ft 109 kts 175°
2026-04-20 03:21 40.19262 -104.79385 7323 ft 110 kts 173°
2026-04-20 03:22 40.18504 -104.79305 7323 ft 110 kts 174°
2026-04-20 03:22 40.17744 -104.79215 7321 ft 110 kts 172°
2026-04-20 03:22 40.16983 -104.79119 7338 ft 109 kts 173°
2026-04-20 03:22 40.16225 -104.79086 7335 ft 110 kts 176°
2026-04-20 03:23 40.15464 -104.79030 7337 ft 110 kts 175°
2026-04-20 03:23 40.14701 -104.78987 7339 ft 110 kts 176°
2026-04-20 03:23 40.13940 -104.78942 7347 ft 109 kts 174°
2026-04-20 03:23 40.13174 -104.78888 7311 ft 111 kts 174°
2026-04-20 03:24 40.12420 -104.78814 7329 ft 109 kts 173°
2026-04-20 03:24 40.11665 -104.78729 7322 ft 109 kts 173°
2026-04-20 03:24 40.10912 -104.78619 7366 ft 107 kts 171°
2026-04-20 03:24 40.10421 -104.78548 7361 ft 109 kts 173°
2026-04-20 03:25 40.09406 -104.78438 7369 ft 109 kts 173°
2026-04-20 03:25 40.08906 -104.78379 7377 ft 108 kts 173°
2026-04-20 03:25 40.08148 -104.78294 7358 ft 110 kts 173°
2026-04-20 03:25 40.07389 -104.78207 7386 ft 108 kts 173°
2026-04-20 03:26 40.06628 -104.78135 7357 ft 111 kts 174°
2026-04-20 03:26 40.05615 -104.78231 7333 ft 114 kts 195°
2026-04-20 03:26 40.05183 -104.78644 7366 ft 115 kts 226°
2026-04-20 03:26 40.04923 -104.79663 7308 ft 125 kts 266°
2026-04-20 03:27 40.05040 -104.80739 7381 ft 119 kts 271°
2026-04-20 03:27 40.05064 -104.81845 7331 ft 125 kts 265°
2026-04-20 03:27 40.05065 -104.82960 7374 ft 122 kts 265°
2026-04-20 03:27 40.05087 -104.84077 7365 ft 123 kts 268°
2026-04-20 03:28 40.05139 -104.85193 7375 ft 123 kts 269°
2026-04-20 03:28 40.05170 -104.86310 7395 ft 123 kts 266°
2026-04-20 03:28 40.05199 -104.88559 7407 ft 124 kts 265°
2026-04-20 03:29 40.05201 -104.89672 7424 ft 123 kts 265°
2026-04-20 03:29 40.05199 -104.90820 7389 ft 126 kts 265°
2026-04-20 03:29 40.05178 -104.91950 7410 ft 125 kts 264°
2026-04-20 03:29 40.05229 -104.93082 7435 ft 126 kts 275°
2026-04-20 03:30 40.05619 -104.94122 7404 ft 131 kts 307°
2026-04-20 03:30 40.06194 -104.95033 7443 ft 128 kts 304°
2026-04-20 03:30 40.06651 -104.96004 7392 ft 124 kts 291°
2026-04-20 03:30 40.07040 -104.97023 7346 ft 122 kts 295°
2026-04-20 03:31 40.07426 -104.97973 7375 ft 116 kts 295°
2026-04-20 03:31 40.07845 -104.98856 7397 ft 113 kts 299°
2026-04-20 03:31 40.08259 -104.99712 7415 ft 109 kts 298°
2026-04-20 03:31 40.08618 -105.00550 7420 ft 104 kts 295°
2026-04-20 03:32 40.08948 -105.01323 7450 ft 100 kts 299°
2026-04-20 03:32 40.09340 -105.02126 7400 ft 109 kts 299°
2026-04-20 03:32 40.09720 -105.02969 7370 ft 107 kts 297°
2026-04-20 03:32 40.10163 -105.03792 7417 ft 109 kts 307°
2026-04-20 03:33 40.10644 -105.04584 7448 ft 111 kts 306°
2026-04-20 03:33 40.11087 -105.05365 7399 ft 104 kts 305°
2026-04-20 03:33 40.11491 -105.06148 7231 ft 103 kts 301°
2026-04-20 03:33 40.11870 -105.06949 7000 ft 107 kts 298°
2026-04-20 03:34 40.12245 -105.07790 6786 ft 105 kts 298°
2026-04-20 03:34 40.12609 -105.08604 6575 ft 102 kts 300°
2026-04-20 03:34 40.12985 -105.09365 6362 ft 100 kts 303°
2026-04-20 03:34 40.13365 -105.10122 6176 ft 95 kts 301°
2026-04-20 03:35 40.13698 -105.10839 6003 ft 91 kts 298°
2026-04-20 03:35 40.14036 -105.11549 5825 ft 92 kts 305°
2026-04-20 03:35 40.14416 -105.12196 5711 ft 86 kts 306°
2026-04-20 03:35 40.14758 -105.12842 5532 ft 89 kts 300°
2026-04-20 03:36 40.15032 -105.13485 5592 ft 75 kts 298°
2026-04-20 03:36 40.15312 -105.14084 5464 ft 78 kts 299°
2026-04-20 03:36 40.15603 -105.14679 5285 ft 76 kts 302°
2026-04-20 03:36 40.15879 -105.15217 5156 ft 69 kts 302°
2026-04-20 03:37 40.16128 -105.15734 5050 ft 64 kts 301°
2026-04-20 03:37 40.16335 -105.16154 5045 ft 45 kts 302°
2026-04-20 03:37 40.16479 -105.16449 5052 ft 33 kts 305°
2026-04-20 03:37 40.16571 -105.16629 5049 ft 13 kts 300°
2026-04-20 03:38 40.16630 -105.16638 5047 ft 10 kts 36°
2026-04-20 03:38 40.16621 -105.16565 5045 ft 10 kts 122°
2026-04-20 03:38 40.16618 -105.16558 5042 ft 0 kts 116°